DELTA 1 DEB, 8319

Orbit data source: Space-Track

DELTA 1 DEB, 8319 is space debris in SSO originally from a launch on Sun, 23 Jul 1972 UTC launched from the Air Force Western Test Range (AFWTR). Debris objects in space refer to the collection of defunct objects orbiting the Earth. Examples of debris include non-operational satellites, rocket bodies, and fragments generated from explosions, collisions, or faulty payload assembly.

Loading next visibility...
Identifier
8319, 1972-058EM
Orbit
SSO
Country
Flag of USUS
Related business
Manufacturer
Unknown
Mission
Spacecraft
Bus & Motor
Unknown
Mass
Unknown
Launch date (UTC)
1972-07-23 (53 years ago)
Launch vehicle
Unknown
Launch site
Air Force Western Test Range (AFWTR)
Object type
Payload
Rocket body
Debris
Shape & HBR
Unknown shape, 0.5 m
Radar Cross Section
Medium (>0.1 m² and <1 m²)

Expand to show TLE details & history
Last TLE update: 6 hours ago

TLE from 6 hours ago
0 DELTA 1 DEB
1  8319U 72058EM  25300.07833947  .00000882  00000-0  19656-3 0  9992
2  8319  98.6488 345.7344 0134660  71.2066 290.3683 14.54095037783780
Epoch: 2025-10-27T01:52Z
TLE epoch observation values (Epoch: 2025-10-27T01:52:48.530Z)
Latitude
0.00003°
Longitude
-78.15316°
Altitude
683.168 km
Speed
7.532 km/s
True Right ascension
23h 02m 56s
True Declination
0° 00' 00"
Sunlit
Object was in full shadow at epoch
Visualization orbit readout
Latitude
Unknown
Longitude
Unknown
Altitude
Unknown
Speed
Unknown
Apparent Right ascension
Unknown
Apparent Declination
Unknown
Sunlit
N/A
Visualization observer readout
Local Sidereal Time
02:59:01
Azimuth
Unknown
Elevation
Unknown
Doppler factor
Unknown
Orbital elements
Apogee altitude
804.855 km
Perigee altitude
613.974 km
Semi-major axis
7,087.552 km
Eccentricity
0.01347
Inclination
98.6488°
RAAN
345.7344°
Arg. of periapsis
71.2066°
True anomaly
288.91333°
Mean anomaly
290.3683°
Eccentric anomaly
289.64165°
Mean motion
3.63747 °/min
Orbital period
98.97 mins
BSTAR
0.00019656
Loading maneuver chart data...
Computing Atmospheric mass density...
Loading historical data...
Loading historical data...
Loading historical data...
Loading historical data...
Loading historical data...
Loading historical data...
Loading historical data...

Documentation

Showing up to 5 results
|